BOX498 OBBI-OMDB

Flight info

Callsign BOX498
Flight time 0h 51m
Altitude 25000
Route BHR345/30R BHR N697 SODAK P559 VUTEB
Aircraft B77L/H-SDE1E2E3FGHIJ2J3J4J5M1RWXY/LB1D1

Departure

Time 2026-04-22 15:35
Airport Bahrain International Airport (OBBI)

Arrival

Time 2026-04-22 16:26
Airport Dubai International Airport (OMDB)
Time Latitude Longitude Altitude Speed Heading
2026-04-22 15:03 26.27336 50.62152 22 ft 0 kts 212°
2026-04-22 15:23 26.27337 50.62153 19 ft 2 kts 212°
2026-04-22 15:23 26.27359 50.62168 23 ft 4 kts 212°
2026-04-22 15:23 26.27382 50.62184 27 ft 4 kts 211°
2026-04-22 15:24 26.27400 50.62197 26 ft 4 kts 268°
2026-04-22 15:24 26.27395 50.62209 26 ft 4 kts 298°
2026-04-22 15:24 26.27385 50.62230 24 ft 0 kts 298°
2026-04-22 15:27 26.27386 50.62229 24 ft 1 kts 299°
2026-04-22 15:27 26.27402 50.62198 25 ft 9 kts 301°
2026-04-22 15:28 26.27449 50.62161 23 ft 9 kts 350°
2026-04-22 15:28 26.27504 50.62185 21 ft 9 kts 34°
2026-04-22 15:28 26.27530 50.62238 22 ft 8 kts 96°
2026-04-22 15:28 26.27502 50.62300 24 ft 11 kts 121°
2026-04-22 15:29 26.27435 50.62416 23 ft 24 kts 122°
2026-04-22 15:29 26.27344 50.62569 25 ft 24 kts 123°
2026-04-22 15:29 26.27258 50.62725 25 ft 24 kts 122°
2026-04-22 15:30 26.27056 50.63052 29 ft 33 kts 123°
2026-04-22 15:30 26.26936 50.63266 26 ft 32 kts 122°
2026-04-22 15:30 26.26822 50.63471 25 ft 31 kts 124°
2026-04-22 15:30 26.26705 50.63665 28 ft 30 kts 123°
2026-04-22 15:31 26.26593 50.63860 30 ft 30 kts 123°
2026-04-22 15:31 26.26479 50.64055 29 ft 30 kts 123°
2026-04-22 15:31 26.26366 50.64250 28 ft 29 kts 123°
2026-04-22 15:31 26.26264 50.64427 26 ft 27 kts 122°
2026-04-22 15:32 26.26163 50.64605 27 ft 27 kts 122°
2026-04-22 15:32 26.26073 50.64763 28 ft 19 kts 122°
2026-04-22 15:32 26.26025 50.64864 27 ft 11 kts 106°
2026-04-22 15:32 26.26023 50.64906 29 ft 1 kts 82°
2026-04-22 15:33 26.26025 50.64915 27 ft 2 kts 74°
2026-04-22 15:33 26.26042 50.64948 28 ft 10 kts 53°
2026-04-22 15:33 26.26103 50.64995 26 ft 11 kts 16°
2026-04-22 15:33 26.26164 50.64953 27 ft 11 kts 306°
2026-04-22 15:34 26.26174 50.64936 25 ft 3 kts 306°
2026-04-22 15:34 26.26313 50.64701 20 ft 72 kts 302°
2026-04-22 15:34 26.26697 50.64030 25 ft 131 kts 302°
2026-04-22 15:34 26.27271 50.63035 44 ft 172 kts 303°
2026-04-22 15:35 26.27692 50.62255 311 ft 175 kts 302°
2026-04-22 15:35 26.28501 50.60729 948 ft 173 kts 316°
2026-04-22 15:35 26.29515 50.60083 1326 ft 170 kts 347°
2026-04-22 15:35 26.30661 50.59785 1837 ft 172 kts 347°
2026-04-22 15:36 26.31909 50.59492 2002 ft 195 kts 355°
2026-04-22 15:36 26.33235 50.59914 2171 ft 214 kts 35°
2026-04-22 15:36 26.34097 50.61355 2383 ft 240 kts 69°
2026-04-22 15:36 26.34492 50.63208 2840 ft 253 kts 75°
2026-04-22 15:37 26.34835 50.65166 3407 ft 261 kts 75°
2026-04-22 15:37 26.35133 50.67158 3933 ft 268 kts 83°
2026-04-22 15:37 26.35197 50.69289 4444 ft 280 kts 90°
2026-04-22 15:37 26.35178 50.71494 5090 ft 285 kts 91°
2026-04-22 15:38 26.35154 50.73686 5981 ft 281 kts 92°
2026-04-22 15:38 26.35128 50.78144 7216 ft 294 kts 92°
2026-04-22 15:38 26.35129 50.80440 7889 ft 299 kts 92°
2026-04-22 15:39 26.35133 50.82786 8452 ft 307 kts 92°
2026-04-22 15:39 26.35140 50.85160 9028 ft 314 kts 91°
2026-04-22 15:39 26.35152 50.87616 9660 ft 319 kts 91°
2026-04-22 15:39 26.35167 50.90111 10237 ft 325 kts 91°
2026-04-22 15:40 26.35180 50.92693 10545 ft 344 kts 92°
2026-04-22 15:40 26.35193 50.95448 10729 ft 368 kts 91°
2026-04-22 15:40 26.35208 50.98402 10912 ft 393 kts 91°
2026-04-22 15:40 26.35225 51.01523 11338 ft 409 kts 91°
2026-04-22 15:41 26.35245 51.04693 11935 ft 419 kts 91°
2026-04-22 15:41 26.35266 51.07970 12656 ft 426 kts 91°
2026-04-22 15:41 26.35286 51.11288 13442 ft 430 kts 91°
2026-04-22 15:41 26.35304 51.14642 14133 ft 435 kts 91°
2026-04-22 15:42 26.35322 51.18031 14831 ft 439 kts 91°
2026-04-22 15:42 26.35338 51.21452 15536 ft 443 kts 91°
2026-04-22 15:42 26.35354 51.24904 16221 ft 448 kts 91°
2026-04-22 15:42 26.35368 51.28346 16896 ft 452 kts 91°
2026-04-22 15:43 26.35382 51.31866 17584 ft 456 kts 91°
2026-04-22 15:43 26.35395 51.35418 18230 ft 461 kts 91°
2026-04-22 15:43 26.35407 51.39016 18773 ft 466 kts 91°
2026-04-22 15:43 26.35420 51.42646 19343 ft 470 kts 91°
2026-04-22 15:44 26.35431 51.46301 19922 ft 474 kts 91°
2026-04-22 15:44 26.35440 51.49983 20524 ft 477 kts 91°
2026-04-22 15:44 26.35450 51.53687 21118 ft 480 kts 91°
2026-04-22 15:44 26.35458 51.57433 21670 ft 484 kts 91°
2026-04-22 15:45 26.35465 51.61156 22181 ft 489 kts 91°
2026-04-22 15:45 26.35471 51.64958 22703 ft 493 kts 91°
2026-04-22 15:45 26.35476 51.68791 23238 ft 496 kts 91°
2026-04-22 15:45 26.35480 51.72653 23719 ft 500 kts 91°
2026-04-22 15:46 26.35484 51.76542 24137 ft 504 kts 91°
2026-04-22 15:46 26.35486 51.80463 24578 ft 507 kts 91°
2026-04-22 15:46 26.35487 51.84407 25015 ft 511 kts 91°
2026-04-22 15:46 26.35488 51.88328 25441 ft 514 kts 91°
2026-04-22 15:47 26.35487 51.92328 25893 ft 518 kts 91°
2026-04-22 15:47 26.35485 51.96351 26327 ft 521 kts 90°
2026-04-22 15:47 26.35482 52.00403 26757 ft 524 kts 90°
2026-04-22 15:47 26.35478 52.04480 27177 ft 528 kts 90°
2026-04-22 15:48 26.35472 52.08583 27594 ft 531 kts 90°
2026-04-22 15:48 26.35466 52.12720 27902 ft 535 kts 90°
2026-04-22 15:48 26.35458 52.16888 27852 ft 538 kts 90°
2026-04-22 15:48 26.35449 52.21050 27848 ft 536 kts 90°
2026-04-22 15:49 26.35440 52.25150 27829 ft 535 kts 90°
2026-04-22 15:49 26.35429 52.29292 27838 ft 535 kts 90°
2026-04-22 15:49 26.35338 52.33436 27832 ft 534 kts 95°
2026-04-22 15:49 26.34844 52.37548 27832 ft 533 kts 102°
2026-04-22 15:50 26.33988 52.41567 27843 ft 532 kts 107°
2026-04-22 15:50 26.32819 52.45417 27831 ft 531 kts 114°
2026-04-22 15:50 26.31348 52.49184 27849 ft 530 kts 116°
2026-04-22 15:50 26.29852 52.52928 27843 ft 530 kts 116°
2026-04-22 15:51 26.28363 52.56700 27836 ft 531 kts 116°
2026-04-22 15:51 26.24300 52.67271 27819 ft 530 kts 115°
2026-04-22 15:52 26.22858 52.71037 27831 ft 530 kts 115°
2026-04-22 15:52 26.21406 52.74825 27834 ft 530 kts 115°
2026-04-22 15:52 26.19978 52.78547 27831 ft 529 kts 115°
2026-04-22 15:52 26.18533 52.82312 27829 ft 529 kts 115°
2026-04-22 15:53 26.17087 52.86074 27826 ft 528 kts 115°
2026-04-22 15:53 26.15644 52.89829 27823 ft 528 kts 115°
2026-04-22 15:53 26.14199 52.93582 27826 ft 527 kts 115°
2026-04-22 15:53 26.12756 52.97331 27822 ft 527 kts 115°
2026-04-22 15:54 26.11311 53.01079 27832 ft 527 kts 115°
2026-04-22 15:54 26.09872 53.04816 27730 ft 524 kts 115°
2026-04-22 15:54 26.08477 53.08543 27400 ft 520 kts 114°
2026-04-22 15:54 26.07117 53.12266 27012 ft 518 kts 114°
2026-04-22 15:55 26.05770 53.15978 26637 ft 516 kts 114°
2026-04-22 15:55 26.04430 53.19670 26294 ft 514 kts 114°
2026-04-22 15:55 26.03107 53.23292 25970 ft 511 kts 114°
2026-04-22 15:55 26.01769 53.26938 25629 ft 509 kts 114°
2026-04-22 15:56 26.00430 53.30573 25238 ft 508 kts 115°
2026-04-22 15:56 25.99092 53.34199 24949 ft 505 kts 115°
2026-04-22 15:56 25.97761 53.37803 24916 ft 503 kts 115°
2026-04-22 15:56 25.96431 53.41402 24916 ft 504 kts 115°
2026-04-22 15:57 25.95096 53.45012 24915 ft 505 kts 115°
2026-04-22 15:57 25.93761 53.48623 24911 ft 505 kts 115°
2026-04-22 15:57 25.92447 53.52243 24912 ft 506 kts 114°
2026-04-22 15:57 25.91188 53.55895 24916 ft 506 kts 113°
2026-04-22 15:58 25.89953 53.59552 24913 ft 506 kts 112°
2026-04-22 15:58 25.88716 53.63209 24915 ft 506 kts 113°
2026-04-22 15:58 25.87484 53.66814 24908 ft 505 kts 113°
2026-04-22 15:58 25.86236 53.70436 24581 ft 501 kts 113°
2026-04-22 15:59 25.84991 53.74031 24070 ft 497 kts 114°
2026-04-22 15:59 25.83749 53.77595 23510 ft 494 kts 114°
2026-04-22 15:59 25.82509 53.81143 22920 ft 490 kts 114°
2026-04-22 15:59 25.81287 53.84641 22438 ft 483 kts 114°
2026-04-22 16:00 25.80077 53.88104 22075 ft 479 kts 114°
2026-04-22 16:00 25.78881 53.91526 21881 ft 473 kts 114°
2026-04-22 16:00 25.77715 53.94861 21659 ft 468 kts 114°
2026-04-22 16:00 25.76541 53.98214 21288 ft 464 kts 114°
2026-04-22 16:01 25.75376 54.01542 20790 ft 461 kts 113°
2026-04-22 16:01 25.74289 54.04875 20288 ft 458 kts 111°
2026-04-22 16:01 25.73275 54.08207 19812 ft 455 kts 111°
2026-04-22 16:01 25.72290 54.11526 19287 ft 452 kts 110°
2026-04-22 16:02 25.71507 54.14921 18602 ft 456 kts 102°
2026-04-22 16:02 25.71015 54.18389 18053 ft 455 kts 100°
2026-04-22 16:02 25.70555 54.21851 17474 ft 452 kts 100°
2026-04-22 16:02 25.70099 54.25282 16936 ft 448 kts 100°
2026-04-22 16:03 25.69638 54.28677 16431 ft 443 kts 101°
2026-04-22 16:03 25.69177 54.31994 15944 ft 439 kts 101°
2026-04-22 16:03 25.68707 54.35319 15445 ft 435 kts 101°
2026-04-22 16:03 25.68237 54.38614 14963 ft 431 kts 101°
2026-04-22 16:04 25.67768 54.41876 14486 ft 427 kts 101°
2026-04-22 16:04 25.67303 54.45109 14012 ft 423 kts 101°
2026-04-22 16:04 25.66842 54.48304 13657 ft 416 kts 102°
2026-04-22 16:04 25.66388 54.51452 13170 ft 411 kts 101°
2026-04-22 16:05 25.65938 54.54563 12685 ft 407 kts 102°
2026-04-22 16:05 25.65492 54.57647 12213 ft 403 kts 102°
2026-04-22 16:05 25.65050 54.60698 11747 ft 399 kts 102°
2026-04-22 16:05 25.64617 54.63681 11299 ft 395 kts 102°
2026-04-22 16:06 25.64187 54.66642 11124 ft 383 kts 102°
2026-04-22 16:06 25.63770 54.69514 10952 ft 372 kts 102°
2026-04-22 16:06 25.63367 54.72287 10789 ft 359 kts 102°
2026-04-22 16:06 25.62975 54.74970 10639 ft 348 kts 102°
2026-04-22 16:07 25.62594 54.77576 10495 ft 337 kts 102°
2026-04-22 16:07 25.62227 54.80098 10361 ft 327 kts 102°
2026-04-22 16:07 25.61870 54.82542 10213 ft 316 kts 102°
2026-04-22 16:07 25.61529 54.84868 10110 ft 304 kts 102°
2026-04-22 16:08 25.61121 54.87091 10027 ft 286 kts 112°
2026-04-22 16:08 25.60388 54.89115 10035 ft 282 kts 118°
2026-04-22 16:08 25.59566 54.91084 10030 ft 282 kts 119°
2026-04-22 16:08 25.58741 54.93054 10026 ft 282 kts 118°
2026-04-22 16:09 25.57927 54.95035 10026 ft 283 kts 118°
2026-04-22 16:09 25.57128 54.97024 10023 ft 283 kts 118°
2026-04-22 16:09 25.56337 54.99022 10021 ft 283 kts 118°
2026-04-22 16:09 25.55547 55.01023 10019 ft 284 kts 117°
2026-04-22 16:10 25.54757 55.03026 10012 ft 284 kts 118°
2026-04-22 16:10 25.53888 55.04948 10022 ft 282 kts 123°
2026-04-22 16:10 25.52906 55.06823 10022 ft 281 kts 125°
2026-04-22 16:10 25.51911 55.08682 9909 ft 280 kts 125°
2026-04-22 16:11 25.50926 55.10537 9645 ft 278 kts 124°
2026-04-22 16:11 25.49955 55.12385 9256 ft 277 kts 124°
2026-04-22 16:11 25.48995 55.14227 8936 ft 273 kts 124°
2026-04-22 16:11 25.48062 55.16023 8870 ft 269 kts 124°
2026-04-22 16:12 25.47115 55.17839 8801 ft 276 kts 124°
2026-04-22 16:12 25.46145 55.19693 8718 ft 280 kts 126°
2026-04-22 16:12 25.45003 55.21384 8640 ft 276 kts 136°
2026-04-22 16:12 25.43711 55.22929 8566 ft 272 kts 137°
2026-04-22 16:13 25.42410 55.24449 8444 ft 272 kts 137°
2026-04-22 16:13 25.41119 55.25981 8313 ft 272 kts 137°
2026-04-22 16:13 25.39842 55.27523 8186 ft 272 kts 136°
2026-04-22 16:13 25.38573 55.29071 8130 ft 271 kts 136°
2026-04-22 16:14 25.37305 55.30624 8079 ft 272 kts 136°
2026-04-22 16:14 25.36037 55.32173 8074 ft 271 kts 137°
2026-04-22 16:14 25.34615 55.33426 8068 ft 264 kts 154°
2026-04-22 16:14 25.32995 55.34385 8071 ft 265 kts 158°
2026-04-22 16:15 25.31340 55.35295 8072 ft 267 kts 158°
2026-04-22 16:15 25.29674 55.36220 8077 ft 269 kts 157°
2026-04-22 16:15 25.27998 55.37169 8073 ft 271 kts 157°
2026-04-22 16:15 25.26327 55.38127 8070 ft 272 kts 156°
2026-04-22 16:16 25.24650 55.39100 8058 ft 271 kts 156°
2026-04-22 16:16 25.22988 55.40071 8054 ft 270 kts 156°
2026-04-22 16:16 25.21334 55.41037 8053 ft 268 kts 156°
2026-04-22 16:16 25.19703 55.41991 7938 ft 261 kts 156°
2026-04-22 16:17 25.18136 55.42909 7479 ft 256 kts 156°
2026-04-22 16:17 25.16575 55.43822 6864 ft 252 kts 156°
2026-04-22 16:17 25.15048 55.44715 6345 ft 244 kts 156°
2026-04-22 16:17 25.13570 55.45579 5789 ft 237 kts 156°
2026-04-22 16:18 25.12127 55.46422 5200 ft 233 kts 155°
2026-04-22 16:18 25.10847 55.47512 4517 ft 239 kts 126°
2026-04-22 16:18 25.10009 55.49096 4019 ft 239 kts 123°
2026-04-22 16:18 25.09154 55.50649 3666 ft 235 kts 124°
2026-04-22 16:19 25.08302 55.52164 3343 ft 230 kts 124°
2026-04-22 16:19 25.07477 55.53632 3022 ft 226 kts 123°
2026-04-22 16:19 25.06654 55.55100 2643 ft 224 kts 122°
2026-04-22 16:19 25.05840 55.56552 2305 ft 221 kts 121°
2026-04-22 16:20 25.05317 55.58074 1967 ft 202 kts 86°
2026-04-22 16:20 25.05705 55.59502 2053 ft 203 kts 52°
2026-04-22 16:20 25.06852 55.60466 2054 ft 215 kts 20°
2026-04-22 16:20 25.08353 55.60566 2037 ft 221 kts 346°
2026-04-22 16:21 25.09750 55.59909 2063 ft 216 kts 334°
2026-04-22 16:21 25.11041 55.59128 2045 ft 207 kts 332°
2026-04-22 16:21 25.12262 55.58354 2034 ft 204 kts 329°
2026-04-22 16:21 25.13400 55.57432 2021 ft 201 kts 318°
2026-04-22 16:22 25.15035 55.54954 2043 ft 200 kts 304°
2026-04-22 16:22 25.15766 55.53645 2053 ft 202 kts 303°
2026-04-22 16:22 25.16495 55.52326 2049 ft 199 kts 303°
2026-04-22 16:23 25.17878 55.49825 2056 ft 187 kts 303°
2026-04-22 16:23 25.18548 55.48614 2045 ft 184 kts 303°
2026-04-22 16:23 25.19211 55.47409 2045 ft 187 kts 302°
2026-04-22 16:24 25.19813 55.46228 1792 ft 169 kts 302°
2026-04-22 16:24 25.20991 55.44139 1093 ft 164 kts 305°
2026-04-22 16:24 25.21599 55.43061 910 ft 164 kts 301°
2026-04-22 16:25 25.22171 55.42004 630 ft 158 kts 305°
2026-04-22 16:25 25.23333 55.39950 173 ft 157 kts 303°
2026-04-22 16:25 25.23892 55.38934 33 ft 149 kts 302°
2026-04-22 16:26 25.24375 55.38074 30 ft 114 kts 304°
2026-04-22 16:26 25.24690 55.37504 27 ft 46 kts 301°
2026-04-22 16:26 25.24772 55.37242 29 ft 26 kts 277°
2026-04-22 16:26 25.24781 55.37070 27 ft 13 kts 272°
2026-04-22 16:27 25.24790 55.36988 26 ft 7 kts 282°
2026-04-22 16:27 25.24807 55.36938 26 ft 7 kts 297°
2026-04-22 16:27 25.24826 55.36896 26 ft 5 kts 297°
2026-04-22 16:27 25.24844 55.36850 26 ft 11 kts 289°
2026-04-22 16:28 25.24881 55.36701 29 ft 25 kts 290°
2026-04-22 16:28 25.24960 55.36541 30 ft 23 kts 302°
2026-04-22 16:28 25.25042 55.36399 31 ft 21 kts 302°
2026-04-22 16:28 25.25116 55.36269 28 ft 19 kts 302°
2026-04-22 16:29 25.25186 55.36144 30 ft 19 kts 302°
2026-04-22 16:29 25.25256 55.36019 28 ft 19 kts 301°
2026-04-22 16:29 25.25331 55.35884 28 ft 23 kts 302°
2026-04-22 16:29 25.25413 55.35739 30 ft 22 kts 301°
2026-04-22 16:30 25.25466 55.35644 28 ft 22 kts 301°
2026-04-22 16:30 25.25571 55.35456 29 ft 19 kts 302°
2026-04-22 16:30 25.25641 55.35332 31 ft 19 kts 302°
2026-04-22 16:30 25.25711 55.35207 28 ft 19 kts 302°
2026-04-22 16:31 25.25768 55.35102 30 ft 8 kts 298°
2026-04-22 16:31 25.25807 55.35057 28 ft 8 kts 333°
2026-04-22 16:31 25.25874 55.35075 30 ft 11 kts 30°
2026-04-22 16:31 25.25944 55.35123 30 ft 16 kts 31°
2026-04-22 16:32 25.26069 55.35208 26 ft 22 kts 31°
2026-04-22 16:32 25.26198 55.35296 28 ft 22 kts 31°
2026-04-22 16:32 25.26333 55.35386 29 ft 15 kts 31°
2026-04-22 16:32 25.26414 55.35440 27 ft 10 kts 31°
2026-04-22 16:33 25.26463 55.35473 24 ft 5 kts 31°
2026-04-22 16:33 25.26487 55.35489 30 ft 4 kts 40°
2026-04-22 16:33 25.26499 55.35533 30 ft 8 kts 99°
2026-04-22 16:33 25.26473 55.35590 28 ft 9 kts 119°
2026-04-22 16:34 25.26440 55.35654 29 ft 10 kts 120°
2026-04-22 16:34 25.26405 55.35717 30 ft 10 kts 122°
2026-04-22 16:34 25.26370 55.35779 29 ft 9 kts 122°
2026-04-22 16:34 25.26339 55.35834 30 ft 8 kts 122°
2026-04-22 16:35 25.26308 55.35888 33 ft 8 kts 122°
2026-04-22 16:35 25.26277 55.35942 30 ft 8 kts 122°
2026-04-22 16:35 25.26248 55.35994 27 ft 7 kts 122°
2026-04-22 16:35 25.26233 55.36042 30 ft 5 kts 69°
2026-04-22 16:36 25.26260 55.36064 27 ft 5 kts 33°
2026-04-22 16:36 25.26282 55.36079 29 ft 1 kts 31°
2026-04-22 16:36 25.26289 55.36084 29 ft 1 kts 31°
2026-04-22 16:36 25.26293 55.36087 29 ft 0 kts 31°